Time,TemperatureF,DewpointF,PressureIn,WindDirection,WindDirectionDegrees,WindSpeedMPH,WindSpeedGustMPH,Humidity,HourlyPrecipIn,Conditions,Clouds,dailyrainin,SoftwareType,DateUTC
2013-03-06 00:00:00,31.0,27.9,30.08,NE,45,0.0,3.0,88,0.00,,,-99.99,Weather View 32 v60,2013-03-06 05:00:00,
2013-03-06 00:05:00,31.0,27.6,30.08,NE,45,0.0,3.0,87,0.00,,,-99.99,Weather View 32 v60,2013-03-06 05:05:00,
2013-03-06 00:10:00,31.0,27.9,30.08,NE,45,0.0,3.0,88,0.00,,,-99.99,Weather View 32 v60,2013-03-06 05:10:00,
2013-03-06 00:15:00,31.0,27.9,30.08,ENE,67,0.0,3.0,88,0.00,,,-99.99,Weather View 32 v60,2013-03-06 05:15:00,
2013-03-06 00:20:00,31.0,27.9,30.08,NNE,22,0.0,4.0,88,0.00,,,-99.99,Weather View 32 v60,2013-03-06 05:20:00,
2013-03-06 00:25:00,31.0,28.1,30.08,NNE,22,1.0,4.0,89,0.00,,,-99.99,Weather View 32 v60,2013-03-06 05:25:00,
2013-03-06 00:30:00,32.0,28.8,30.07,NNE,22,0.0,4.0,88,0.00,,,-99.99,Weather View 32 v60,2013-03-06 05:30:00,
2013-03-06 00:35:00,31.0,27.9,30.07,NNE,22,0.0,4.0,88,0.00,,,-99.99,Weather View 32 v60,2013-03-06 05:35:00,
2013-03-06 00:40:00,31.0,28.1,30.06,North,360,0.0,4.0,89,0.00,,,-99.99,Weather View 32 v60,2013-03-06 05:40:00,
2013-03-06 00:45:00,31.0,27.9,30.06,NE,45,0.0,5.0,88,0.00,,,-99.99,Weather View 32 v60,2013-03-06 05:45:00,
2013-03-06 00:50:00,32.0,28.8,30.06,NNW,337,1.0,7.0,88,0.00,,,-99.99,Weather View 32 v60,2013-03-06 05:50:00,
2013-03-06 00:55:00,32.0,28.8,30.06,North,360,1.0,7.0,88,0.00,,,-99.99,Weather View 32 v60,2013-03-06 05:55:00,
2013-03-06 01:00:00,32.0,28.8,30.05,NW,315,0.0,7.0,88,0.00,,,-99.99,Weather View 32 v60,2013-03-06 06:00:00,
2013-03-06 01:05:00,32.0,29.1,30.05,NNE,22,5.0,8.0,89,0.00,,,-99.99,Weather View 32 v60,2013-03-06 06:05:00,
2013-03-06 01:10:00,32.0,28.8,30.04,NE,45,1.0,8.0,88,0.00,,,-99.99,Weather View 32 v60,2013-03-06 06:10:00,
2013-03-06 01:15:00,32.0,29.1,30.04,North,360,2.0,8.0,89,0.00,,,-99.99,Weather View 32 v60,2013-03-06 06:15:00,
2013-03-06 01:20:00,32.0,29.1,30.04,North,360,2.0,8.0,89,0.00,,,-99.99,Weather View 32 v60,2013-03-06 06:20:00,
2013-03-06 01:25:00,32.0,29.1,30.04,NNE,22,3.0,8.0,89,0.00,,,-99.99,Weather View 32 v60,2013-03-06 06:25:00,
2013-03-06 01:30:00,32.0,29.4,30.03,NE,45,1.0,9.0,90,0.00,,,-99.99,Weather View 32 v60,2013-03-06 06:30:00,
2013-03-06 01:35:00,32.0,29.7,30.03,NE,45,0.0,10.0,91,0.00,,,-99.99,Weather View 32 v60,2013-03-06 06:35:00,
2013-03-06 01:40:00,32.0,29.7,30.02,NE,45,6.0,10.0,91,0.00,,,-99.99,Weather View 32 v60,2013-03-06 06:40:00,
2013-03-06 01:45:00,33.0,30.4,30.02,NE,45,0.0,10.0,90,0.00,,,-99.99,Weather View 32 v60,2013-03-06 06:45:00,
2013-03-06 01:50:00,33.0,30.4,30.02,NE,45,9.0,13.0,90,0.00,,,-99.99,Weather View 32 v60,2013-03-06 06:50:00,
2013-03-06 01:55:00,33.0,30.4,30.02,NNE,22,3.0,13.0,90,0.00,,,-99.99,Weather View 32 v60,2013-03-06 06:55:00,
2013-03-06 02:00:00,33.0,30.4,30.02,NNE,22,7.0,13.0,90,0.00,,,-99.99,Weather View 32 v60,2013-03-06 07:00:00,
2013-03-06 02:05:00,33.0,30.1,30.02,NNE,22,0.0,13.0,89,0.00,,,-99.99,Weather View 32 v60,2013-03-06 07:05:00,
2013-03-06 02:10:00,34.0,31.1,30.00,NNE,22,4.0,13.0,89,0.00,,,-99.99,Weather View 32 v60,2013-03-06 07:10:00,
2013-03-06 02:15:00,34.0,31.1,30.00,NNE,22,7.0,13.0,89,0.00,,,-99.99,Weather View 32 v60,2013-03-06 07:15:00,
2013-03-06 02:20:00,34.0,30.8,30.00,NE,45,2.0,13.0,88,0.00,,,-99.99,Weather View 32 v60,2013-03-06 07:20:00,
2013-03-06 02:25:00,34.0,31.1,30.00,North,360,6.0,13.0,89,0.00,,,-99.99,Weather View 32 v60,2013-03-06 07:25:00,
2013-03-06 02:30:00,34.0,31.1,30.00,NNE,22,3.0,13.0,89,0.00,,,-99.99,Weather View 32 v60,2013-03-06 07:30:00,
2013-03-06 02:35:00,34.0,31.1,30.00,NNE,22,6.0,14.0,89,0.00,,,-99.99,Weather View 32 v60,2013-03-06 07:35:00,
2013-03-06 02:40:00,34.0,31.1,30.00,ENE,67,3.0,14.0,89,0.00,,,-99.99,Weather View 32 v60,2013-03-06 07:40:00,
2013-03-06 02:45:00,34.0,31.1,30.00,NE,45,4.0,14.0,89,0.00,,,-99.99,Weather View 32 v60,2013-03-06 07:45:00,
2013-03-06 02:50:00,34.0,31.1,30.00,NNE,22,3.0,14.0,89,0.00,,,-99.99,Weather View 32 v60,2013-03-06 07:50:00,
2013-03-06 02:55:00,35.0,32.4,30.00,North,360,6.0,14.0,90,0.00,,,-99.99,Weather View 32 v60,2013-03-06 07:55:00,
2013-03-06 03:00:00,35.0,32.6,29.99,North,360,10.0,14.0,91,0.00,,,-99.99,Weather View 32 v60,2013-03-06 08:00:00,
2013-03-06 03:05:00,35.0,32.6,29.99,North,360,12.0,14.0,91,0.00,,,-99.99,Weather View 32 v60,2013-03-06 08:05:00,
2013-03-06 03:10:00,35.0,32.6,29.99,NNE,22,3.0,14.0,91,0.00,,,-99.99,Weather View 32 v60,2013-03-06 08:10:00,
2013-03-06 03:15:00,35.0,32.6,29.99,NNE,22,11.0,15.0,91,0.00,,,-99.99,Weather View 32 v60,2013-03-06 08:15:00,
2013-03-06 03:20:00,36.0,33.3,29.99,NNE,22,3.0,15.0,90,0.00,,,-99.99,Weather View 32 v60,2013-03-06 08:20:00,
2013-03-06 03:25:00,36.0,33.3,29.99,NNE,22,2.0,15.0,90,0.00,,,-99.99,Weather View 32 v60,2013-03-06 08:25:00,
2013-03-06 03:30:00,36.0,33.1,29.99,NE,45,10.0,16.0,89,0.00,,,-99.99,Weather View 32 v60,2013-03-06 08:30:00,
2013-03-06 03:35:00,36.0,32.8,29.99,NE,45,8.0,17.0,88,0.00,,,-99.99,Weather View 32 v60,2013-03-06 08:35:00,
2013-03-06 03:40:00,36.0,32.8,29.98,North,360,7.0,17.0,88,0.00,,,-99.99,Weather View 32 v60,2013-03-06 08:40:00,
2013-03-06 03:45:00,36.0,32.5,29.98,NNE,22,12.0,25.0,87,0.00,,,-99.99,Weather View 32 v60,2013-03-06 08:45:00,
2013-03-06 03:50:00,37.0,33.2,29.97,NE,45,8.0,25.0,86,0.00,,,-99.99,Weather View 32 v60,2013-03-06 08:50:00,
2013-03-06 03:55:00,37.0,32.9,29.97,NNE,22,6.0,25.0,85,0.00,,,-99.99,Weather View 32 v60,2013-03-06 08:55:00,
2013-03-06 04:00:00,37.0,32.9,29.97,ENE,67,5.0,25.0,85,0.00,,,-99.99,Weather View 32 v60,2013-03-06 09:00:00,
2013-03-06 04:05:00,37.0,32.6,29.97,East,90,11.0,25.0,84,0.00,,,-99.99,Weather View 32 v60,2013-03-06 09:05:00,
2013-03-06 04:10:00,37.0,32.9,29.97,North,360,8.0,25.0,85,0.00,,,-99.99,Weather View 32 v60,2013-03-06 09:10:00,
2013-03-06 04:15:00,37.0,32.6,29.97,ENE,67,6.0,25.0,84,0.00,,,-99.99,Weather View 32 v60,2013-03-06 09:15:00,
2013-03-06 04:20:00,36.0,31.6,29.97,ENE,67,5.0,25.0,84,0.00,,,-99.99,Weather View 32 v60,2013-03-06 09:20:00,
2013-03-06 04:30:00,37.0,32.6,29.97,NNE,22,15.0,27.0,84,0.00,,,-99.99,Weather View 32 v60,2013-03-06 09:30:00,
2013-03-06 04:35:00,37.0,32.9,29.97,NW,315,6.0,27.0,85,0.00,,,-99.99,Weather View 32 v60,2013-03-06 09:35:00,
2013-03-06 04:40:00,37.0,32.6,29.96,ENE,67,7.0,30.0,84,0.00,,,-99.99,Weather View 32 v60,2013-03-06 09:40:00,
2013-03-06 04:50:00,36.0,32.2,29.96,NE,45,9.0,30.0,86,0.00,,,-99.99,Weather View 32 v60,2013-03-06 09:50:00,
2013-03-06 05:00:00,36.0,32.2,29.97,East,90,5.0,30.0,86,0.00,,,-99.99,Weather View 32 v60,2013-03-06 10:00:00,
2013-03-06 05:05:00,36.0,33.1,29.97,NNE,22,12.0,30.0,89,0.00,,,-99.99,Weather View 32 v60,2013-03-06 10:05:00,
2013-03-06 05:10:00,36.0,33.1,29.96,ENE,67,7.0,30.0,89,0.00,,,-99.99,Weather View 32 v60,2013-03-06 10:10:00,
2013-03-06 05:15:00,36.0,33.3,29.96,NW,315,5.0,30.0,90,0.00,,,-99.99,Weather View 32 v60,2013-03-06 10:15:00,
2013-03-06 05:25:00,37.0,32.6,29.97,NE,45,10.0,25.0,84,0.00,,,-99.99,Weather View 32 v60,2013-03-06 10:25:00,
2013-03-06 05:40:00,36.0,33.6,29.95,NNE,22,10.0,26.0,91,0.00,,,-99.99,Weather View 32 v60,2013-03-06 10:40:00,
2013-03-06 05:45:00,36.0,31.9,29.96,North,360,13.0,30.0,85,0.00,,,-99.99,Weather View 32 v60,2013-03-06 10:45:00,
2013-03-06 05:50:00,36.0,33.3,29.96,ENE,67,5.0,25.0,90,0.00,,,-99.99,Weather View 32 v60,2013-03-06 10:50:00,
2013-03-06 05:55:00,36.0,32.2,29.96,North,360,11.0,30.0,86,0.00,,,-99.99,Weather View 32 v60,2013-03-06 10:55:00,
2013-03-06 06:20:00,36.0,33.6,29.96,NE,45,24.0,30.0,91,0.00,,,-99.99,Weather View 32 v60,2013-03-06 11:20:00,
2013-03-06 06:30:00,36.0,33.6,29.96,NE,45,10.0,30.0,91,0.00,,,-99.99,Weather View 32 v60,2013-03-06 11:30:00,
2013-03-06 06:40:00,36.0,33.6,29.95,NNE,22,10.0,26.0,91,0.00,,,-99.99,Weather View 32 v60,2013-03-06 11:40:00,
2013-03-06 06:55:00,36.0,33.3,29.96,NE,45,15.0,25.0,90,0.00,,,-99.99,Weather View 32 v60,2013-03-06 11:55:00,
2013-03-06 07:00:00,36.0,33.3,29.96,NNE,22,14.0,26.0,90,0.00,,,-99.99,Weather View 32 v60,2013-03-06 12:00:00,
2013-03-06 07:10:00,36.0,33.1,29.96,ENE,67,5.0,27.0,89,0.00,,,-99.99,Weather View 32 v60,2013-03-06 12:10:00,
2013-03-06 07:15:00,36.0,33.1,29.96,NE,45,5.0,27.0,89,0.00,,,-99.99,Weather View 32 v60,2013-03-06 12:15:00,
2013-03-06 07:25:00,36.0,32.2,29.96,NW,315,9.0,32.0,86,0.00,,,-99.99,Weather View 32 v60,2013-03-06 12:25:00,
2013-03-06 07:35:00,37.0,33.2,29.97,NNE,22,16.0,32.0,86,0.00,,,-99.99,Weather View 32 v60,2013-03-06 12:35:00,
2013-03-06 07:40:00,36.0,32.5,29.98,NNE,22,9.0,32.0,87,0.00,,,-99.99,Weather View 32 v60,2013-03-06 12:40:00,
2013-03-06 07:45:00,36.0,33.1,29.98,NNE,22,19.0,32.0,89,0.00,,,-99.99,Weather View 32 v60,2013-03-06 12:45:00,
2013-03-06 07:55:00,36.0,32.5,29.98,NNE,22,9.0,33.0,87,0.00,,,-99.99,Weather View 32 v60,2013-03-06 12:55:00,
2013-03-06 08:00:00,37.0,33.2,29.97,NE,45,0.0,33.0,86,0.00,,,-99.99,Weather View 32 v60,2013-03-06 13:00:00,
2013-03-06 08:10:00,36.0,31.9,29.98,NE,45,20.0,33.0,85,0.00,,,-99.99,Weather View 32 v60,2013-03-06 13:10:00,
2013-03-06 08:20:00,37.0,32.0,29.98,North,360,12.0,33.0,82,0.00,,,-99.99,Weather View 32 v60,2013-03-06 13:20:00,
2013-03-06 08:30:00,37.0,31.7,29.97,NNE,22,6.0,33.0,81,0.00,,,-99.99,Weather View 32 v60,2013-03-06 13:30:00,
2013-03-06 08:40:00,37.0,31.7,29.97,NE,45,11.0,33.0,81,0.00,,,-99.99,Weather View 32 v60,2013-03-06 13:40:00,
2013-03-06 08:45:00,38.0,32.1,29.97,NNE,22,12.0,33.0,79,0.00,,,-99.99,Weather View 32 v60,2013-03-06 13:45:00,
2013-03-06 08:50:00,38.0,32.4,29.96,North,360,6.0,33.0,80,0.00,,,-99.99,Weather View 32 v60,2013-03-06 13:50:00,
2013-03-06 08:55:00,38.0,32.4,29.96,NNE,22,10.0,29.0,80,0.00,,,-99.99,Weather View 32 v60,2013-03-06 13:55:00,
2013-03-06 09:04:00,38.0,32.7,29.95,North,360,6.0,29.0,81,0.00,,,-99.99,Weather View 32 v60,2013-03-06 14:04:00,
2013-03-06 09:10:00,37.0,32.0,29.96,NE,45,9.0,29.0,82,0.00,,,-99.99,Weather View 32 v60,2013-03-06 14:10:00,
2013-03-06 09:15:00,37.0,32.3,29.96,NNE,22,3.0,29.0,83,0.00,,,-99.99,Weather View 32 v60,2013-03-06 14:15:00,
2013-03-06 09:25:00,38.0,32.7,29.96,NE,45,9.0,29.0,81,0.00,,,-99.99,Weather View 32 v60,2013-03-06 14:25:00,
2013-03-06 09:35:00,38.0,32.7,29.96,NE,45,7.0,29.0,81,0.00,,,-99.99,Weather View 32 v60,2013-03-06 14:35:00,
2013-03-06 09:40:00,38.0,32.4,29.96,NE,45,14.0,29.0,80,0.00,,,-99.99,Weather View 32 v60,2013-03-06 14:40:00,
2013-03-06 09:45:00,38.0,32.4,29.96,NE,45,7.0,29.0,80,0.00,,,-99.99,Weather View 32 v60,2013-03-06 14:45:00,
2013-03-06 09:55:00,38.0,32.7,29.95,ENE,67,8.0,32.0,81,0.00,,,-99.99,Weather View 32 v60,2013-03-06 14:55:00,
2013-03-06 10:00:00,38.0,32.7,29.95,NNE,22,10.0,32.0,81,0.00,,,-99.99,Weather View 32 v60,2013-03-06 15:00:00,
2013-03-06 10:05:00,38.0,32.4,29.95,NE,45,22.0,32.0,80,0.00,,,-99.99,Weather View 32 v60,2013-03-06 15:05:00,
2013-03-06 10:15:00,38.0,32.7,29.96,NNW,337,9.0,32.0,81,0.00,,,-99.99,Weather View 32 v60,2013-03-06 15:15:00,
2013-03-06 10:20:00,38.0,32.7,29.96,North,360,10.0,32.0,81,0.00,,,-99.99,Weather View 32 v60,2013-03-06 15:20:00,
2013-03-06 10:30:00,38.0,33.0,29.96,North,360,15.0,32.0,82,0.00,,,-99.99,Weather View 32 v60,2013-03-06 15:30:00,
2013-03-06 10:35:00,38.0,33.0,29.96,ENE,67,6.0,32.0,82,0.00,,,-99.99,Weather View 32 v60,2013-03-06 15:35:00,
2013-03-06 10:45:00,38.0,32.7,29.95,NNW,337,17.0,32.0,81,0.00,,,-99.99,Weather View 32 v60,2013-03-06 15:45:00,
2013-03-06 10:55:00,38.0,32.7,29.95,NE,45,13.0,31.0,81,0.00,,,-99.99,Weather View 32 v60,2013-03-06 15:55:00,
2013-03-06 11:05:00,38.0,32.4,29.95,NE,45,15.0,30.0,80,0.00,,,-99.99,Weather View 32 v60,2013-03-06 16:05:00,
2013-03-06 11:10:00,38.0,32.7,29.95,North,360,5.0,30.0,81,0.00,,,-99.99,Weather View 32 v60,2013-03-06 16:10:00,
2013-03-06 11:15:00,38.0,33.3,29.95,NNE,22,15.0,30.0,83,0.00,,,-99.99,Weather View 32 v60,2013-03-06 16:15:00,
2013-03-06 11:25:00,37.0,34.1,29.95,NE,45,13.0,30.0,89,0.00,,,-99.99,Weather View 32 v60,2013-03-06 16:25:00,
2013-03-06 11:30:00,37.0,34.9,29.96,North,360,5.0,30.0,92,0.00,,,-99.99,Weather View 32 v60,2013-03-06 16:30:00,
2013-03-06 11:35:00,36.0,34.4,29.96,NNE,22,10.0,30.0,94,0.00,,,-99.99,Weather View 32 v60,2013-03-06 16:35:00,
2013-03-06 11:45:00,36.0,34.7,29.96,NNE,22,13.0,30.0,95,0.00,,,-99.99,Weather View 32 v60,2013-03-06 16:45:00,
2013-03-06 11:50:00,36.0,34.7,29.97,NNE,22,8.0,30.0,95,0.00,,,-99.99,Weather View 32 v60,2013-03-06 16:50:00,
2013-03-06 12:00:00,36.0,34.7,29.96,NNE,22,16.0,30.0,95,0.00,,,-99.99,Weather View 32 v60,2013-03-06 17:00:00,
2013-03-06 12:10:00,36.0,34.7,29.96,North,360,11.0,30.0,95,0.00,,,-99.99,Weather View 32 v60,2013-03-06 17:10:00,
2013-03-06 12:25:00,37.0,35.4,29.94,NW,315,7.0,27.0,94,0.00,,,-99.99,Weather View 32 v60,2013-03-06 17:25:00,
2013-03-06 12:30:00,37.0,34.6,29.96,ENE,67,10.0,27.0,91,0.00,,,-99.99,Weather View 32 v60,2013-03-06 17:30:00,
2013-03-06 12:40:00,37.0,34.3,29.95,North,360,12.0,27.0,90,0.00,,,-99.99,Weather View 32 v60,2013-03-06 17:40:00,
2013-03-06 12:45:00,38.0,34.8,29.95,NNE,22,11.0,27.0,88,0.00,,,-99.99,Weather View 32 v60,2013-03-06 17:45:00,
2013-03-06 12:50:00,38.0,34.5,29.94,NE,45,10.0,27.0,87,0.00,,,-99.99,Weather View 32 v60,2013-03-06 17:50:00,
2013-03-06 13:00:00,38.0,33.9,29.94,NNE,22,27.0,27.0,85,0.00,,,-99.99,Weather View 32 v60,2013-03-06 18:00:00,
2013-03-06 13:10:00,38.0,34.2,29.94,ENE,67,11.0,30.0,86,0.00,,,-99.99,Weather View 32 v60,2013-03-06 18:10:00,
2013-03-06 13:20:00,38.0,34.5,29.93,NE,45,12.0,30.0,87,0.00,,,-99.99,Weather View 32 v60,2013-03-06 18:20:00,
2013-03-06 13:25:00,38.0,34.2,29.93,North,360,5.0,30.0,86,0.00,,,-99.99,Weather View 32 v60,2013-03-06 18:25:00,
2013-03-06 13:34:00,38.0,33.6,29.93,NE,45,9.0,30.0,84,0.00,,,-99.99,Weather View 32 v60,2013-03-06 18:34:00,
2013-03-06 13:40:00,38.0,33.3,29.93,NE,45,9.0,30.0,83,0.00,,,-99.99,Weather View 32 v60,2013-03-06 18:40:00,
2013-03-06 13:45:00,38.0,32.7,29.93,NE,45,19.0,31.0,81,0.00,,,-99.99,Weather View 32 v60,2013-03-06 18:45:00,
2013-03-06 13:55:00,38.0,31.7,29.93,NE,45,20.0,31.0,78,0.00,,,-99.99,Weather View 32 v60,2013-03-06 18:55:00,
2013-03-06 14:00:00,39.0,31.7,29.93,NNE,22,20.0,31.0,75,0.00,,,-99.99,Weather View 32 v60,2013-03-06 19:00:00,
2013-03-06 14:10:00,39.0,30.7,29.93,North,360,18.0,34.0,72,0.00,,,-99.99,Weather View 32 v60,2013-03-06 19:10:00,
2013-03-06 14:15:00,40.0,31.3,29.93,NNE,22,16.0,36.0,71,0.00,,,-99.99,Weather View 32 v60,2013-03-06 19:15:00,
2013-03-06 14:20:00,40.0,31.3,29.91,North,360,12.0,36.0,71,0.00,,,-99.99,Weather View 32 v60,2013-03-06 19:20:00,
2013-03-06 14:25:00,40.0,30.3,29.91,ENE,67,7.0,36.0,68,0.00,,,-99.99,Weather View 32 v60,2013-03-06 19:25:00,
2013-03-06 14:34:00,40.0,29.2,29.92,NNE,22,13.0,36.0,65,0.00,,,-99.99,Weather View 32 v60,2013-03-06 19:34:00,
2013-03-06 14:40:00,40.0,29.5,29.94,NNE,22,10.0,36.0,66,0.00,,,-99.99,Weather View 32 v60,2013-03-06 19:40:00,
2013-03-06 14:45:00,40.0,29.9,29.94,NNE,22,15.0,36.0,67,0.00,,,-99.99,Weather View 32 v60,2013-03-06 19:45:00,
2013-03-06 14:50:00,40.0,30.3,29.94,NE,45,5.0,36.0,68,0.00,,,-99.99,Weather View 32 v60,2013-03-06 19:50:00,
2013-03-06 15:00:00,40.0,31.0,29.96,North,360,16.0,36.0,70,0.00,,,-99.99,Weather View 32 v60,2013-03-06 20:00:00,
2013-03-06 15:10:00,39.0,30.4,29.95,NNW,337,3.0,39.0,71,0.00,,,-99.99,Weather View 32 v60,2013-03-06 20:10:00,
2013-03-06 15:15:00,39.0,30.4,29.95,North,360,7.0,39.0,71,0.00,,,-99.99,Weather View 32 v60,2013-03-06 20:15:00,
2013-03-06 15:20:00,39.0,30.4,29.96,North,360,7.0,39.0,71,0.00,,,-99.99,Weather View 32 v60,2013-03-06 20:20:00,
2013-03-06 15:25:00,39.0,30.4,29.96,NNE,22,7.0,39.0,71,0.00,,,-99.99,Weather View 32 v60,2013-03-06 20:25:00,
2013-03-06 15:35:00,39.0,30.7,29.96,NNE,22,9.0,39.0,72,0.00,,,-99.99,Weather View 32 v60,2013-03-06 20:35:00,
2013-03-06 15:40:00,39.0,31.1,29.96,NE,45,8.0,39.0,73,0.00,,,-99.99,Weather View 32 v60,2013-03-06 20:40:00,
2013-03-06 15:48:00,39.0,32.1,29.96,NW,315,5.0,39.0,76,0.00,,,-99.99,Weather View 32 v60,2013-03-06 20:48:00,
2013-03-06 15:55:00,39.0,32.1,29.98,NW,315,7.0,39.0,76,0.00,,,-99.99,Weather View 32 v60,2013-03-06 20:55:00,
2013-03-06 16:05:00,37.0,34.1,29.98,North,360,8.0,26.0,89,0.00,,,-99.99,Weather View 32 v60,2013-03-06 21:05:00,
2013-03-06 16:15:00,37.0,34.6,29.99,NNE,22,7.0,26.0,91,0.00,,,-99.99,Weather View 32 v60,2013-03-06 21:15:00,
2013-03-06 16:25:00,37.0,34.9,29.99,North,360,10.0,26.0,92,0.00,,,-99.99,Weather View 32 v60,2013-03-06 21:25:00,
2013-03-06 16:30:00,37.0,34.6,30.00,ENE,67,2.0,26.0,91,0.00,,,-99.99,Weather View 32 v60,2013-03-06 21:30:00,
2013-03-06 16:45:00,36.0,33.3,30.00,NNE,22,4.0,26.0,90,0.00,,,-99.99,Weather View 32 v60,2013-03-06 21:45:00,
2013-03-06 16:55:00,36.0,34.4,30.01,NE,45,1.0,23.0,94,0.00,,,-99.99,Weather View 32 v60,2013-03-06 21:55:00,
2013-03-06 17:04:00,35.0,33.7,30.02,NW,315,6.0,23.0,95,0.00,,,-99.99,Weather View 32 v60,2013-03-06 22:04:00,
2013-03-06 17:15:00,35.0,33.4,30.01,NNE,22,8.0,23.0,94,0.01,,,-99.99,Weather View 32 v60,2013-03-06 22:15:00,
2013-03-06 17:20:00,35.0,33.4,30.02,WNW,292,0.0,23.0,94,0.01,,,-99.99,Weather View 32 v60,2013-03-06 22:20:00,
2013-03-06 17:30:00,35.0,32.6,30.03,North,360,10.0,19.0,91,0.01,,,-99.99,Weather View 32 v60,2013-03-06 22:30:00,
2013-03-06 18:25:00,37.0,30.1,30.02,NW,315,0.0,16.0,76,0.00,,,-99.99,Weather View 32 v60,2013-03-06 23:25:00,
2013-03-06 18:40:00,38.0,29.4,30.04,North,360,10.0,10.0,71,0.00,,,-99.99,Weather View 32 v60,2013-03-06 23:40:00,
2013-03-06 19:05:00,38.0,29.4,30.04,North,360,4.0,10.0,71,0.00,,,-99.99,Weather View 32 v60,2013-03-07 00:05:00,
2013-03-06 19:10:00,38.0,29.1,30.04,NNW,337,8.0,15.0,70,0.00,,,-99.99,Weather View 32 v60,2013-03-07 00:10:00,
2013-03-06 19:25:00,38.0,29.1,30.05,NE,45,17.0,18.0,70,0.00,,,-99.99,Weather View 32 v60,2013-03-07 00:25:00,
2013-03-06 19:30:00,38.0,29.4,30.05,NE,45,10.0,18.0,71,0.00,,,-99.99,Weather View 32 v60,2013-03-07 00:30:00,
2013-03-06 19:35:00,38.0,29.1,30.05,NNW,337,12.0,18.0,70,0.00,,,-99.99,Weather View 32 v60,2013-03-07 00:35:00,
2013-03-06 19:45:00,38.0,29.4,30.04,North,360,6.0,18.0,71,0.00,,,-99.99,Weather View 32 v60,2013-03-07 00:45:00,
2013-03-06 19:52:00,38.0,29.4,30.05,NW,315,4.0,18.0,71,0.00,,,-99.99,Weather View 32 v60,2013-03-07 00:52:00,
2013-03-06 20:00:00,38.0,29.4,30.05,West,270,4.0,18.0,71,0.00,,,-99.99,Weather View 32 v60,2013-03-07 01:00:00,
2013-03-06 20:10:00,38.0,29.4,30.06,NW,315,1.0,23.0,71,0.00,,,-99.99,Weather View 32 v60,2013-03-07 01:10:00,
2013-03-06 20:15:00,38.0,29.4,30.06,NNW,337,3.0,23.0,71,0.00,,,-99.99,Weather View 32 v60,2013-03-07 01:15:00,
2013-03-06 20:25:00,38.0,29.8,30.06,NNE,22,3.0,23.0,72,0.01,,,-99.99,Weather View 32 v60,2013-03-07 01:25:00,
2013-03-06 20:30:00,37.0,28.5,30.06,North,360,13.0,23.0,71,0.00,,,-99.99,Weather View 32 v60,2013-03-07 01:30:00,
2013-03-06 20:35:00,38.0,29.1,30.06,NW,315,8.0,23.0,70,0.00,,,-99.99,Weather View 32 v60,2013-03-07 01:35:00,
2013-03-06 20:45:00,37.0,28.5,30.06,North,360,10.0,23.0,71,0.00,,,-99.99,Weather View 32 v60,2013-03-07 01:45:00,
2013-03-06 20:52:00,37.0,29.1,30.08,North,360,6.0,23.0,73,0.00,,,-99.99,Weather View 32 v60,2013-03-07 01:52:00,
2013-03-06 21:00:00,37.0,29.5,30.07,North,360,15.0,27.0,74,0.00,,,-99.99,Weather View 32 v60,2013-03-07 02:00:00,
2013-03-06 21:10:00,37.0,29.5,30.08,NE,45,10.0,27.0,74,0.00,,,-99.99,Weather View 32 v60,2013-03-07 02:10:00,
2013-03-06 21:20:00,37.0,28.8,30.08,NE,45,7.0,27.0,72,0.00,,,-99.99,Weather View 32 v60,2013-03-07 02:20:00,
2013-03-06 21:25:00,37.0,29.1,30.08,NW,315,7.0,27.0,73,0.00,,,-99.99,Weather View 32 v60,2013-03-07 02:25:00,
2013-03-06 21:30:00,37.0,29.8,30.08,NE,45,4.0,27.0,75,0.00,,,-99.99,Weather View 32 v60,2013-03-07 02:30:00,
2013-03-06 21:40:00,37.0,29.5,30.08,North,360,1.0,27.0,74,0.00,,,-99.99,Weather View 32 v60,2013-03-07 02:40:00,
2013-03-06 21:50:00,37.0,29.8,30.08,ENE,67,3.0,27.0,75,0.00,,,-99.99,Weather View 32 v60,2013-03-07 02:50:00,
2013-03-06 21:55:00,36.0,30.7,30.08,NE,45,10.0,27.0,81,0.00,,,-99.99,Weather View 32 v60,2013-03-07 02:55:00,
2013-03-06 22:00:00,35.0,30.1,30.08,ENE,67,13.0,27.0,82,0.00,,,-99.99,Weather View 32 v60,2013-03-07 03:00:00,
2013-03-06 22:05:00,35.0,30.9,30.08,NE,45,5.0,25.0,85,0.00,,,-99.99,Weather View 32 v60,2013-03-07 03:05:00,
2013-03-06 22:10:00,34.0,31.1,30.10,NNW,337,3.0,25.0,89,0.00,,,-99.99,Weather View 32 v60,2013-03-07 03:10:00,
2013-03-06 22:15:00,34.0,31.6,30.10,NE,45,8.0,25.0,91,0.00,,,-99.99,Weather View 32 v60,2013-03-07 03:15:00,
2013-03-06 22:25:00,33.0,31.5,30.10,NNE,22,4.0,25.0,94,0.00,,,-99.99,Weather View 32 v60,2013-03-07 03:25:00,
2013-03-06 22:45:00,33.0,30.7,30.10,East,90,0.0,25.0,91,0.00,,,-99.99,Weather View 32 v60,2013-03-07 03:45:00,
2013-03-06 22:55:00,33.0,29.6,30.10,ENE,67,6.0,16.0,87,0.00,,,-99.99,Weather View 32 v60,2013-03-07 03:55:00,
2013-03-06 23:00:00,33.0,29.3,30.10,NE,45,3.0,16.0,86,0.00,,,-99.99,Weather View 32 v60,2013-03-07 04:00:00,
2013-03-06 23:05:00,33.0,28.7,30.10,NE,45,7.0,16.0,84,0.00,,,-99.99,Weather View 32 v60,2013-03-07 04:05:00,
2013-03-06 23:10:00,35.0,26.9,30.09,NW,315,2.0,18.0,72,0.00,,,-99.99,Weather View 32 v60,2013-03-07 04:10:00,
2013-03-06 23:15:00,34.0,27.9,30.10,NE,45,10.0,16.0,78,0.00,,,-99.99,Weather View 32 v60,2013-03-07 04:15:00,
2013-03-06 23:20:00,35.0,27.5,30.09,East,90,1.0,18.0,74,0.00,,,-99.99,Weather View 32 v60,2013-03-07 04:20:00,
2013-03-06 23:25:00,35.0,26.9,30.09,NW,315,2.0,18.0,72,0.00,,,-99.99,Weather View 32 v60,2013-03-07 04:25:00,
2013-03-06 23:30:00,35.0,27.5,30.09,NNW,337,0.0,18.0,74,0.00,,,-99.99,Weather View 32 v60,2013-03-07 04:30:00,
2013-03-06 23:40:00,35.0,26.9,30.09,West,270,1.0,14.0,72,0.00,,,-99.99,Weather View 32 v60,2013-03-07 04:40:00,
2013-03-06 23:45:00,35.0,27.2,30.09,NE,45,3.0,18.0,73,0.00,,,-99.99,Weather View 32 v60,2013-03-07 04:45:00,
2013-03-06 23:50:00,35.0,26.9,30.09,North,360,7.0,20.0,72,0.00,,,-99.99,Weather View 32 v60,2013-03-07 04:50:00,
2013-03-06 23:54:00,35.0,26.9,30.09,NNE,22,7.0,18.0,72,0.00,,,-99.99,Weather View 32 v60,2013-03-07 04:54:00,
2013-03-06 23:55:00,35.0,26.9,30.09,North,360,4.0,20.0,72,0.00,,,-99.99,Weather View 32 v60,2013-03-07 04:55:00,